Location: Austin
(30.3000°N, 97.7500°W)
Time: 06:18:45
(UTC-06:00)

Cosmos 1814 Rocket - Pass Details

Date: 05 February 2026
Orbit: 741 x 782 km, 74.1° (Epoch: 15 February)

Event Time Altitude Azimuth Distance (km) Brightness Sun altitude
Exits shadow 06:22:34 - 334° (NNW) 2,966 6.7 -12.6°
Reaches altitude 10° 06:24:26 10° 329° (NNW) 2,265 6.0 -12.2°
Maximum altitude 06:29:15 43° 259° (WSW) 1,044 4.3 -11.2°
Drops below altitude 10° 06:34:01 10° 188° (S) 2,241 6.5 -10.2°
Sets 06:36:27 0° 182° (S) 3,160 7.3 -9.7°
